[[{"header":{"parameterUnit":"m.s-1","parameterCategory":1,"la1":30.2991,"la2":30.254,"lo1":-89.0895,"lo2":-89.0444,"dy":0.0017,"dx":0.0017,"nx":28,"ny":28,"refTime":"2025-11-30T09:00:00:Z","depth":0,"parameterNumber":2,"parameterNumberName":"U-component_of_WINDS"},"data":[0,0,0,0,0,0,0,0,0,0,0,0,0,0,0,0,0,0,0,0,0,0,0,0,0,0,0,0,0,0,0,0,0,0,0,0,0,0,0,0,0,0,0,0,0,0,0,0,0,0,0,0,0,0,0,0,0,0,-2.5359,-2.5359,0,-2.5386,-2.5387,-2.5387,-2.5336,-2.5334,-2.5333,-2.5331,-2.5359,-2.5362,-2.5364,0,0,0,0,0,0,0,0,0,0,0,0,0,-2.5262,-2.5264,-2.5359,-2.536,-2.536,-2.5386,-2.5387,-2.5387,-2.5336,-2.5334,-2.5332,-2.533,-2.5358,-2.5361,-2.5364,0,0,0,0,0,0,0,0,0,0,0,0,0,-2.5298,-2.5265,-2.5359,-2.5338,-2.5336,-2.5386,-2.5387,-2.5387,-2.5337,-2.5334,-2.5332,-2.5329,-2.5358,-2.5361,-2.5364,-2.5437,0,0,-2.5375,-2.5377,0,0,0,0,0,0,0,0,-2.5296,-2.5302,-2.5341,-2.5339,-2.5338,-2.5355,-2.5363,-2.5404,-2.5337,-2.5337,-2.5331,-2.5328,-2.536,-2.5363,-2.5374,-2.5438,-2.5439,-2.5375,-2.5378,-2.5379,-2.538,0,0,0,0,0,0,0,-2.5294,-2.5301,-2.537,-2.5341,-2.5339,-2.5326,-2.5329,-2.537,-2.5362,-2.5336,-2.5333,-2.5337,-2.5359,-2.5371,-2.5374,-2.544,-2.5375,-2.5378,-2.5381,-2.5382,-2.5564,-2.5566,0,0,0,0,0,0,-2.5294,-2.5299,-2.5369,-2.5371,-2.531,-2.533,-2.5333,-2.5352,-2.5362,-2.5361,-2.5339,-2.5334,-2.5366,-2.537,-2.5375,-2.546,-2.5379,-2.5382,-2.5384,-2.5561,-2.5564,-2.5567,0,0,0,0,0,0,-2.5292,-2.5301,-2.5368,-2.5334,-2.5341,-2.5335,-2.5357,-2.5354,-2.5366,-2.5363,-2.5362,-2.5353,-2.5364,-2.537,-2.5422,-2.546,-2.5384,-2.5387,-2.5558,-2.5562,-2.5566,-2.5631,0,0,0,0,0,0,-2.529,-2.5301,-2.5328,-2.5335,-2.5343,-2.5415,-2.5359,-2.5356,-2.5372,-2.5366,-2.5376,-2.5375,-2.5363,-2.5417,-2.5425,-2.5464,-2.539,-2.5554,-2.556,-2.5564,-2.5625,-2.5637,-2.5646,0,0,0,0,0,-2.5286,-2.5346,-2.533,-2.5339,-2.5378,-2.5417,-2.5422,-2.5406,-2.5375,-2.5403,-2.5401,-2.5375,-2.5454,-2.5422,-2.5431,-2.5472,-2.5552,-2.5558,-2.5564,-2.562,-2.5634,-2.5646,0,0,0,0,0,0,-2.5345,-2.5346,-2.5329,-2.5392,-2.5405,-2.5408,-2.5443,-2.5422,-2.5443,-2.5437,-2.5417,-2.5419,-2.5475,-2.5478,-2.5442,-2.5541,-2.5498,-2.5506,-2.5538,-2.5551,-2.5561,-2.556,-2.5393,0,0,0,0,0,-2.5365,-2.5397,-2.5396,-2.5452,-2.5459,-2.545,-2.5467,-2.5453,-2.5466,-2.5471,-2.5473,-2.5485,-2.5513,-2.5532,-2.5557,-2.5625,-2.5626,-2.5657,-2.5667,-2.5676,-2.5684,-2.5719,-2.5733,-2.5587,-2.5587,-2.5587,0,0,-2.5407,-2.5412,-2.5433,-2.5464,-2.5472,-2.5505,-2.5455,-2.5492,-2.5517,-2.5476,-2.5525,-2.5527,-2.554,-2.5599,-2.5626,-2.5604,-2.5724,-2.5684,-2.5691,-2.5694,-2.5727,-2.574,-2.5753,-2.5591,-2.5591,-2.559,0,0,-2.5501,-2.5508,-2.5555,-2.5564,-2.5577,-2.557,-2.5581,-2.5588,-2.5587,-2.5636,-2.5606,-2.5634,-2.5682,-2.5692,-2.5704,-2.58,-2.5776,-2.5809,-2.5864,-2.5899,-2.591,-2.592,-2.5954,-2.5967,-2.5816,-2.5816,-2.5816,0,-2.5552,-2.5601,-2.5582,-2.5621,-2.5635,-2.5599,-2.5647,-2.5656,-2.5677,-2.5687,-2.5662,-2.5721,-2.5727,-2.5789,-2.5812,-2.5822,-2.5834,-2.5808,-2.591,-2.592,-2.5929,-2.5961,-2.5974,-2.582,-2.582,-2.5819,-2.5819,0,-2.5663,-2.5697,-2.5733,-2.5753,-2.5771,-2.5814,-2.5802,-2.5822,-2.5806,-2.5802,-2.5851,-2.5857,-2.5883,-2.5896,-2.5882,-2.5955,-2.5941,-2.5914,-2.5869,-2.5947,-2.5977,-2.5989,-2.5826,-2.5824,-2.5823,-2.5822,0,0,-2.5796,-2.5804,-2.5817,-2.5826,-2.5836,-2.5862,-2.5903,-2.5928,-2.5945,-2.596,-2.5994,-2.6035,-2.6009,-2.6022,-2.6008,-2.6038,-2.6113,-2.6007,-2.6007,-2.6026,-2.6194,-2.6215,-2.623,-2.6097,-2.6099,-2.6101,-2.6193,0,-2.5889,-2.5959,-2.5943,-2.6012,-2.6043,-2.6009,-2.6044,-2.6054,-2.6051,-2.6076,-2.6072,-2.6101,-2.6065,-2.6073,-2.6101,-2.6098,-2.6147,-2.6091,-2.6128,-2.613,-2.6127,-2.6245,-2.6268,-2.6355,-2.6205,-2.6207,-2.6208,0,-2.6007,-2.6026,-2.6099,-2.6103,-2.6116,-2.6148,-2.6168,-2.6193,-2.6203,-2.6199,-2.6213,-2.6192,-2.6232,-2.6187,-2.6241,-2.6203,-2.6217,-2.6218,-2.6221,-2.6224,-2.6174,-2.6252,-2.6382,-2.6395,-2.6226,-2.6225,-2.6223,0,-2.6097,-2.6141,-2.6189,-2.6197,-2.6204,-2.6227,-2.6231,-2.6239,-2.6254,-2.6272,-2.6282,-2.6304,-2.6317,-2.6334,-2.632,-2.6288,-2.6376,-2.633,-2.6373,-2.6374,-2.6394,-2.6393,-2.6528,-2.6403,-2.6402,-2.6402,-2.6402,0,-2.6204,-2.6249,-2.623,-2.626,-2.631,-2.6289,-2.6339,-2.6339,-2.6346,-2.6375,-2.6346,-2.6374,-2.6354,-2.638,-2.6369,-2.6415,-2.6421,-2.6418,-2.6415,-2.6421,-2.6421,-2.643,-2.6424,-2.6406,-2.6405,-2.6404,-2.6404,0,-2.6313,-2.6302,-2.6352,-2.6354,-2.6355,-2.6392,-2.6393,-2.642,-2.6414,-2.6451,-2.6459,-2.6449,-2.6478,-2.6465,-2.6496,-2.6488,-2.6548,-2.6536,-2.6545,-2.6542,-2.6586,-2.6582,-2.6732,-2.675,-2.6613,-2.6614,-2.6615,0,-2.6382,-2.6416,-2.6421,-2.6438,-2.6444,-2.6472,-2.6487,-2.6468,-2.6485,-2.6498,-2.6524,-2.6551,-2.6571,-2.6618,-2.6614,-2.6637,-2.6626,-2.6676,-2.6629,-2.6634,-2.6627,-2.6625,-2.6628,-2.6686,-2.6688,-2.6689,-2.669,0,-2.6505,-2.6498,-2.6521,-2.6542,-2.6561,-2.6577,-2.659,-2.6605,-2.6587,-2.6607,-2.6636,-2.6652,-2.6682,-2.6708,-2.6728,-2.6731,-2.6708,-2.6705,-2.6716,-2.6723,-2.6727,-2.6725,-2.6571,-2.6702,-2.6701,-2.67,-2.6699,-2.6699,-2.6597,-2.6625,-2.6632,-2.6659,-2.6667,-2.6679,-2.6705,-2.6701,-2.6725,-2.6748,-2.6735,-2.6769,-2.6777,-2.6801,-2.6807,-2.6833,-2.6813,-2.683,-2.6834,-2.6838,-2.6844,-2.6722,-2.6837,-2.6836,-2.6836,-2.6836,-2.6835,0,-2.6719,-2.6721,-2.6746,-2.6765,-2.6785,-2.676,-2.6773,-2.6792,-2.6822,-2.6831,-2.6851,-2.6884,-2.6909,-2.6906,-2.6928,-2.695,-2.6939,-2.6956,-2.6955,-2.6956,-2.6861,-2.6849,-2.6964,-2.6964,-2.6964,-2.6964,-2.6964,-2.6964,-2.6785,-2.6831,-2.6824,-2.6874,-2.6876,-2.6908,-2.6918,-2.6929,-2.6936,-2.6974,-2.6994,-2.6992,-2.6996,-2.7018,-2.704,-2.7038,-2.7048,-2.7069,-2.7064,-2.6975,-2.6963,-2.695,-2.6939,-2.7071,-2.7072,-2.7156,-2.7157,-2.7158]},{"header":{"parameterUnit":"m.s-1","parameterCategory":1,"la1":30.2991,"la2":30.254,"lo1":-89.0895,"lo2":-89.0444,"dy":0.0017,"dx":0.0017,"nx":28,"ny":28,"refTime":"2025-11-30T09:00:00:Z","depth":0,"parameterNumber":3,"parameterNumberName":"V-component_of_WINDS"},"data":[0,0,0,0,0,0,0,0,0,0,0,0,0,0,0,0,0,0,0,0,0,0,0,0,0,0,0,0,0,0,0,0,0,0,0,0,0,0,0,0,0,0,0,0,0,0,0,0,0,0,0,0,0,0,0,0,0,0,-7.0532,-7.0533,0,-7.0599,-7.06,-7.06,-7.0525,-7.0522,-7.052,-7.0517,-7.058,-7.0584,-7.0588,0,0,0,0,0,0,0,0,0,0,0,0,0,-7.0334,-7.0338,-7.0532,-7.0533,-7.0534,-7.0599,-7.06,-7.0601,-7.0526,-7.0522,-7.0519,-7.0516,-7.0578,-7.0583,-7.0588,0,0,0,0,0,0,0,0,0,0,0,0,0,-7.0412,-7.0339,-7.0532,-7.0505,-7.0503,-7.0599,-7.06,-7.0601,-7.0526,-7.0522,-7.0518,-7.0514,-7.0576,-7.0583,-7.0589,-7.0714,0,0,-7.0609,-7.0612,0,0,0,0,0,0,0,0,-7.0408,-7.0419,-7.0508,-7.0507,-7.0505,-7.055,-7.0553,-7.0638,-7.0527,-7.0517,-7.0517,-7.0512,-7.0573,-7.0579,-7.0601,-7.0717,-7.0719,-7.0609,-7.0613,-7.0616,-7.0618,0,0,0,0,0,0,0,-7.0402,-7.0416,-7.0558,-7.0509,-7.0507,-7.0487,-7.0493,-7.0569,-7.0568,-7.0518,-7.0513,-7.0522,-7.0571,-7.0595,-7.0602,-7.072,-7.0609,-7.0615,-7.0619,-7.0621,-7.094,-7.0944,0,0,0,0,0,0,-7.0401,-7.0412,-7.0556,-7.056,-7.0445,-7.0494,-7.0501,-7.0539,-7.0567,-7.0567,-7.0525,-7.0518,-7.0586,-7.0594,-7.0604,-7.075,-7.0616,-7.0622,-7.0626,-7.0935,-7.0941,-7.0946,0,0,0,0,0,0,-7.0397,-7.0415,-7.0554,-7.0485,-7.0501,-7.0502,-7.0545,-7.0543,-7.0567,-7.0572,-7.0571,-7.055,-7.0583,-7.0594,-7.0687,-7.0751,-7.0625,-7.0631,-7.093,-7.0937,-7.0943,-7.1045,0,0,0,0,0,0,-7.0392,-7.0414,-7.0463,-7.0487,-7.0505,-7.0638,-7.0549,-7.0547,-7.0579,-7.057,-7.0595,-7.0596,-7.058,-7.0678,-7.0693,-7.0758,-7.0636,-7.0924,-7.0933,-7.0941,-7.1036,-7.1055,-7.1071,0,0,0,0,0,-7.0385,-7.0488,-7.0466,-7.0483,-7.0567,-7.0642,-7.0652,-7.0634,-7.0584,-7.0632,-7.0636,-7.0595,-7.0742,-7.0688,-7.0705,-7.0772,-7.092,-7.093,-7.094,-7.1028,-7.1051,-7.107,0,0,0,0,0,0,-7.0469,-7.049,-7.0466,-7.058,-7.061,-7.0629,-7.0689,-7.0659,-7.0702,-7.0692,-7.0666,-7.0672,-7.077,-7.078,-7.072,-7.0893,-7.0822,-7.0836,-7.0883,-7.0905,-7.0922,-7.0917,-7.0641,0,0,0,0,0,-7.0502,-7.0563,-7.0577,-7.0677,-7.0693,-7.0689,-7.0721,-7.0705,-7.0734,-7.0745,-7.0756,-7.0784,-7.0836,-7.0871,-7.092,-7.1037,-7.1041,-7.1092,-7.1109,-7.1123,-7.1136,-7.1197,-7.1219,-7.0979,-7.0979,-7.0979,0,0,-7.0568,-7.0587,-7.0627,-7.0694,-7.0715,-7.0777,-7.07,-7.0769,-7.0814,-7.0755,-7.0843,-7.0852,-7.0881,-7.0987,-7.1034,-7.0998,-7.1203,-7.1136,-7.1148,-7.1152,-7.121,-7.1233,-7.1253,-7.0986,-7.0985,-7.0984,0,0,-7.0721,-7.0743,-7.0827,-7.0851,-7.0884,-7.0881,-7.0901,-7.0925,-7.0929,-7.1017,-7.0974,-7.1026,-7.1117,-7.114,-7.1163,-7.1325,-7.1288,-7.1341,-7.1431,-7.1491,-7.151,-7.1527,-7.1583,-7.1604,-7.1353,-7.1354,-7.1354,0,-7.0799,-7.0893,-7.0874,-7.0947,-7.0977,-7.0928,-7.1012,-7.1034,-7.1082,-7.1102,-7.1062,-7.1175,-7.1192,-7.1301,-7.134,-7.1361,-7.1382,-7.1338,-7.1509,-7.1526,-7.1541,-7.1594,-7.1616,-7.136,-7.1359,-7.1358,-7.1358,0,-7.0987,-7.1053,-7.1117,-7.1165,-7.1202,-7.128,-7.1271,-7.131,-7.129,-7.129,-7.138,-7.1398,-7.1449,-7.1473,-7.1454,-7.158,-7.1557,-7.1514,-7.1441,-7.157,-7.162,-7.164,-7.1369,-7.1366,-7.1364,-7.1363,0,0,-7.1195,-7.1232,-7.1256,-7.1277,-7.1311,-7.136,-7.1434,-7.1486,-7.152,-7.1553,-7.1614,-7.1692,-7.1653,-7.1679,-7.1662,-7.1715,-7.184,-7.1665,-7.1665,-7.1696,-7.1977,-7.2009,-7.2033,-7.1816,-7.182,-7.1823,-7.1975,0,-7.1348,-7.148,-7.1465,-7.159,-7.1649,-7.1603,-7.1668,-7.1694,-7.1696,-7.1745,-7.1746,-7.1802,-7.1746,-7.1761,-7.1812,-7.1814,-7.1896,-7.1803,-7.187,-7.1873,-7.1864,-7.2059,-7.2093,-7.2236,-7.1994,-7.1997,-7.2,0,-7.1544,-7.1587,-7.1719,-7.1743,-7.1767,-7.1826,-7.1871,-7.1919,-7.1947,-7.1944,-7.1974,-7.1947,-7.202,-7.1947,-7.2046,-7.1983,-7.201,-7.2015,-7.202,-7.2025,-7.1944,-7.2068,-7.2281,-7.2302,-7.203,-7.2028,-7.2025,0,-7.1682,-7.1772,-7.1862,-7.1882,-7.1912,-7.1954,-7.1968,-7.1992,-7.2024,-7.2062,-7.2082,-7.2129,-7.2154,-7.2189,-7.2175,-7.2123,-7.2276,-7.2202,-7.2274,-7.2275,-7.2308,-7.2306,-7.2526,-7.2327,-7.2326,-7.2326,-7.2325,0,-7.1854,-7.1936,-7.1925,-7.198,-7.207,-7.205,-7.2139,-7.2147,-7.2169,-7.2223,-7.2185,-7.2237,-7.2215,-7.2264,-7.2253,-7.2336,-7.2347,-7.2346,-7.2342,-7.2349,-7.2349,-7.2365,-7.2355,-7.2331,-7.233,-7.2329,-7.2328,0,-7.2023,-7.2019,-7.2114,-7.2135,-7.2142,-7.2207,-7.2223,-7.2274,-7.2273,-7.2342,-7.2357,-7.2355,-7.2411,-7.24,-7.2462,-7.2454,-7.2557,-7.2541,-7.2549,-7.2544,-7.2617,-7.261,-7.2855,-7.2885,-7.2667,-7.2669,-7.2671,0,-7.2133,-7.2195,-7.2223,-7.2258,-7.2275,-7.2331,-7.2364,-7.2346,-7.2381,-7.2417,-7.2463,-7.2516,-7.2558,-7.2649,-7.2652,-7.2698,-7.2682,-7.2765,-7.2689,-7.2694,-7.2682,-7.2678,-7.2684,-7.278,-7.2782,-7.2784,-7.2786,0,-7.2328,-7.2322,-7.2372,-7.2421,-7.2461,-7.2497,-7.253,-7.256,-7.2545,-7.2586,-7.2644,-7.2676,-7.2739,-7.2792,-7.2835,-7.2846,-7.2814,-7.281,-7.2829,-7.2836,-7.2838,-7.2837,-7.2589,-7.2804,-7.2802,-7.2801,-7.28,-7.2799,-7.2469,-7.2522,-7.255,-7.2606,-7.2629,-7.2661,-7.2709,-7.2715,-7.2763,-7.2815,-7.2801,-7.2866,-7.289,-7.2945,-7.2962,-7.3011,-7.298,-7.3008,-7.3014,-7.3021,-7.303,-7.2831,-7.3019,-7.3018,-7.3018,-7.3017,-7.3017,0,-7.2662,-7.2677,-7.2729,-7.2777,-7.282,-7.2787,-7.2822,-7.2859,-7.2918,-7.2945,-7.2987,-7.3052,-7.3103,-7.3109,-7.3157,-7.3195,-7.3181,-7.3208,-7.3204,-7.3207,-7.3055,-7.3034,-7.3218,-7.3218,-7.3218,-7.3218,-7.3218,-7.3218,-7.2767,-7.2854,-7.2852,-7.295,-7.2964,-7.3029,-7.3052,-7.308,-7.3101,-7.3176,-7.3219,-7.3223,-7.3241,-7.329,-7.3334,-7.3334,-7.3353,-7.3386,-7.338,-7.3238,-7.3218,-7.3199,-7.3178,-7.339,-7.339,-7.3527,-7.3529,-7.353]}]]